GW7203 Weather Reports


Display with metric or nautical units.
time (UTC)temp
F
wind
direction
speed
MPH
gust
MPH
rain 1hr
in
rain 24hr
in
rain mn
in
humidity
%
barometer
mb
20260507185329 52 63 3.0 6.0 0.00 0.97 0.00 96 999.7
20260507185129 52 13 2.0 3.0 0.00 0.97 0.00 96 999.9
20260507184929 52 53 2.0 2.0 0.00 0.97 0.00 96 999.9
20260507184729 52 24 1.0 3.0 0.00 0.97 0.00 96 999.7
20260507184529 52 7 2.0 3.0 0.00 0.97 0.00 96 999.6
20260507184329 52 7 1.0 2.0 0.00 0.97 0.00 96 999.6
20260507183929 52 314 2.0 3.0 0.00 0.97 0.00 96 999.5
20260507183529 52 328 1.0 3.0 0.00 0.97 0.00 96 999.6
20260507183329 52 330 3.0 6.0 0.00 0.97 0.00 96 999.4
20260507183129 52 321 2.0 4.0 0.00 0.97 0.00 96 999.5
20260507182929 52 2 3.0 4.0 0.00 0.97 0.00 96 999.2
20260507182729 52 317 1.0 2.0 0.00 0.97 0.00 96 999.2
20260507182329 52 333 3.0 7.0 0.00 0.97 0.00 96 999.6
20260507182129 52 352 1.0 2.0 0.00 0.97 0.00 95 999.4
20260507181929 52 7 1.0 4.0 0.00 0.97 0.00 95 999.6
20260507181729 52 16 1.0 3.0 0.00 0.97 0.00 96 999.4
20260507181529 52 359 1.0 3.0 0.00 0.97 0.00 96 999.1
20260507181329 52 307 3.0 4.0 0.00 0.97 0.00 96 999.1
20260507181129 52 28 1.0 4.0 0.00 0.97 0.00 96 999.3
20260507180729 52 37 2.0 6.0 0.00 0.97 0.00 96 998.8
20260507180529 52 3 1.0 2.0 0.00 0.97 0.00 96 998.4
20260507180329 52 244 0.0 1.0 0.00 0.97 0.00 96 998.0
20260507180129 52 210 1.0 1.0 0.00 0.97 0.00 96 997.9
20260507175929 52 175 0.0 1.0 0.00 0.97 0.00 96 998.2
20260507175729 52 176 1.0 1.0 0.00 0.97 0.00 96 998.3
20260507175529 52 169 0.0 3.0 0.05 0.97 0.00 96 997.8
20260507175329 52 259 1.0 10.0 0.05 0.97 0.00 97 997.5
20260507175129 52 266 1.0 3.0 0.05 0.97 0.00 97 998.0
20260507174929 52 257 1.0 4.0 0.05 0.97 0.00 97 998.3
20260507174729 52 233 2.0 2.0 0.05 0.97 0.00 97 998.4
20260507174529 52 235 3.0 3.0 0.07 0.96 0.00 97 998.6
20260507174329 52 268 1.0 3.0 0.07 0.96 0.00 97 998.5
20260507174129 52 293 2.0 4.0 0.07 0.96 0.00 97 998.8
20260507173929 52 286 1.0 1.0 0.07 0.96 0.00 97 999.0
20260507173730 52 295 1.0 2.0 0.07 0.96 0.00 97 999.1
20260507173529 52 294 1.0 2.0 0.00 0.95 0.00 97 999.2
20260507173329 52 295 1.0 1.0 0.00 0.95 0.00 97 999.4
20260507173129 52 294 2.0 1.0 0.05 0.95 0.00 97 999.3
20260507172929 52 297 0.0 1.0 0.05 0.95 0.00 97 999.5
20260507172329 52 316 1.0 1.0 0.05 0.95 0.00 97 1000.0
20260507171929 52 317 1.0 2.0 0.07 0.94 0.00 97 1000.0
20260507171728 52 298 1.0 1.0 0.07 0.94 0.00 97 1000.1
20260507171529 52 298 1.0 1.0 0.07 0.94 0.00 97 999.9
20260507171329 52 298 0.0 1.0 0.07 0.94 0.00 97 1000.0
20260507171129 51 298 0.0 0.0 0.05 0.93 0.00 97 1000.0
20260507170929 51 298 0.0 1.0 0.12 0.93 0.00 97 1000.0
20260507170729 51 298 0.0 0.0 0.12 0.93 0.00 97 999.9
20260507170529 51 299 1.0 1.0 0.12 0.93 0.00 97 1000.3
20260507170329 51 299 0.0 1.0 0.07 0.92 0.00 97 1000.2
20260507170129 51 299 0.0 2.0 0.07 0.92 0.00 97 1000.4
20260507165929 51 289 1.0 3.0 0.00 0.91 0.00 97 1000.5
20260507165729 51 311 2.0 3.0 0.00 0.91 0.00 97 1000.9
20260507165529 51 294 0.0 3.0 0.00 0.91 0.00 97 1000.6
20260507165129 51 318 0.0 1.0 0.00 0.91 0.00 97 1000.3
20260507164929 51 318 0.0 2.0 0.00 0.91 0.00 97 1000.2
20260507164329 51 318 1.0 1.0 0.07 0.91 0.00 97 1000.0
20260507164129 51 315 0.0 1.0 0.07 0.91 0.00 97 1000.1
20260507163929 51 315 0.0 0.0 0.07 0.91 0.00 97 999.9
20260507163729 51 315 0.0 0.0 0.00 0.90 0.00 97 999.7
20260507163329 51 307 0.0 0.0 0.05 0.90 0.00 97 1000.1
20260507163129 51 305 0.0 2.0 0.12 0.90 0.00 97 1000.2
20260507162929 51 314 2.0 3.0 0.17 0.90 0.00 97 1000.2
20260507162528 51 301 1.0 3.0 0.24 0.89 0.00 97 1000.4
20260507162329 51 324 1.0 2.0 0.24 0.88 0.00 97 1000.7
20260507162129 51 317 1.0 3.0 0.19 0.87 0.00 97 1000.8
20260507161729 51 331 1.0 2.0 0.17 0.86 0.00 97 1001.0
20260507161328 51 317 2.0 2.0 0.12 0.84 0.00 97 1001.1
20260507161128 51 321 4.0 4.0 0.17 0.84 0.00 97 1001.1
20260507160928 51 351 0.0 2.0 0.19 0.83 0.00 97 1001.0
20260507160728 51 9 2.0 2.0 0.19 0.83 0.00 97 1001.2
20260507160528 51 5 2.0 3.0 0.17 0.82 0.00 97 1001.1
20260507160329 51 325 2.0 3.0 0.24 0.82 0.00 97 1001.1
20260507160129 51 334 1.0 3.0 0.26 0.81 0.00 97 1000.9
20260507155329 51 348 2.0 3.0 0.24 0.78 0.00 97 1001.1
20260507154929 51 338 3.0 4.0 0.19 0.76 0.00 97 1001.1
20260507154728 51 332 1.0 2.0 0.17 0.75 0.00 97 1001.1
20260507154528 51 330 0.0 1.0 0.17 0.75 0.00 96 1001.0
20260507154328 51 330 1.0 1.0 0.19 0.74 0.00 96 1001.0
20260507153529 51 319 1.0 4.0 0.31 0.72 0.00 96 1001.4
20260507153329 51 5 1.0 2.0 0.31 0.71 0.00 96 1001.3
20260507153129 51 9 1.0 2.0 0.43 0.71 0.00 96 1001.2
20260507152929 51 335 6.0 8.0 0.43 0.69 0.00 96 1001.5
20260507152529 51 325 4.0 4.0 0.54 0.67 0.00 96 1001.6
20260507152329 52 331 1.0 2.0 0.64 0.66 0.00 96 1001.6
20260507152129 52 345 1.0 7.0 0.66 0.63 0.00 96 1001.7
20260507151929 52 344 2.0 3.0 0.78 0.61 0.00 96 1002.2
20260507151329 52 335 1.0 2.0 0.59 0.54 0.00 96 1002.0
20260507151129 52 330 2.0 2.0 0.43 0.50 0.00 96 1001.9
20260507150929 52 18 2.0 3.0 0.24 0.46 0.00 96 1002.1
20260507150729 52 322 2.0 4.0 0.24 0.45 0.00 96 1002.1
20260507150529 52 1 1.0 3.0 0.19 0.44 0.00 96 1001.9
20260507150128 52 22 1.0 2.0 0.31 0.43 0.00 96 1002.0
20260507145928 52 325 2.0 6.0 0.38 0.42 0.00 96 1001.8
20260507145728 52 338 3.0 4.0 0.35 0.41 0.00 96 1001.7
20260507145528 53 347 3.0 4.0 0.43 0.41 0.00 96 1001.6
20260507145328 53 332 3.0 3.0 0.31 0.39 0.00 96 1002.2
20260507145128 53 9 2.0 2.0 0.28 0.38 0.00 96 1002.1
20260507144928 53 7 2.0 13.0 0.17 0.36 0.00 96 1002.3
20260507144728 53 352 7.0 9.0 0.05 0.34 0.00 96 1002.4
20260507144528 53 13 3.0 7.0 0.12 0.34 0.00 96 1002.2
20260507144328 53 358 3.0 6.0 0.07 0.33 0.00 96 1002.1
20260507144128 53 350 2.0 7.0 0.07 0.33 0.00 96 1002.1
20260507143929 53 318 4.0 6.0 0.12 0.33 0.00 96 1002.1
20260507143729 53 307 2.0 3.0 0.12 0.33 0.00 96 1002.0
20260507143529 53 344 2.0 4.0 0.12 0.32 0.00 96 1002.1
20260507143329 53 305 4.0 4.0 0.17 0.32 0.00 96 1002.0
20260507142529 53 4 3.0 6.0 0.00 0.29 0.00 96 1002.1
20260507142329 53 342 4.0 6.0 0.00 0.29 0.00 97 1002.0
20260507142129 53 9 0.0 2.0 0.07 0.29 0.00 97 1001.9
20260507141929 53 333 1.0 2.0 0.07 0.29 0.00 97 1002.2
20260507141729 53 319 3.0 4.0 0.07 0.29 0.00 97 1002.0
20260507141329 53 338 2.0 7.0 0.14 0.29 0.00 96 1002.2
20260507141129 53 317 4.0 7.0 0.07 0.28 0.00 96 1002.1
20260507140929 53 31 3.0 7.0 0.07 0.28 0.00 96 1001.8
20260507140729 53 20 2.0 8.0 0.07 0.28 0.00 96 1001.8
20260507140529 53 351 3.0 7.0 0.07 0.28 0.00 96 1001.9
20260507140329 54 10 2.0 8.0 0.00 0.27 0.00 96 1002.2
20260507140129 54 325 0.0 8.0 0.00 0.27 0.00 96 1002.1
20260507135929 54 329 4.0 9.0 0.00 0.27 0.00 96 1002.1
20260507135329 54 358 2.0 3.0 0.00 0.27 0.00 96 1002.2
20260507135129 54 327 3.0 8.0 0.00 0.27 0.00 96 1002.1
20260507134929 54 318 10.0 15.0 0.00 0.27 0.00 96 1002.3
20260507134729 54 276 5.0 8.0 0.00 0.27 0.00 96 1002.3
20260507134529 54 338 7.0 11.0 0.00 0.27 0.00 96 1002.3
20260507134129 54 345 3.0 8.0 0.00 0.27 0.00 96 1002.1
20260507133929 54 313 6.0 9.0 0.00 0.27 0.00 96 1002.0
20260507133729 54 342 9.0 10.0 0.00 0.27 0.00 96 1002.1
20260507133529 54 330 1.0 6.0 0.00 0.27 0.00 96 1002.2
20260507133329 54 4 5.0 7.0 0.00 0.27 0.00 96 1002.2
20260507133129 54 320 7.0 8.0 0.00 0.27 0.00 96 1002.3
20260507132929 54 329 6.0 11.0 0.00 0.27 0.00 96 1002.5
20260507132529 54 306 2.0 7.0 0.00 0.27 0.00 96 1002.6
20260507132329 54 329 6.0 7.0 0.00 0.27 0.00 96 1002.4
20260507131929 54 344 5.0 9.0 0.00 0.27 0.00 96 1002.7
20260507131729 54 324 7.0 9.0 0.00 0.27 0.00 96 1002.7
20260507131529 54 40 3.0 9.0 0.00 0.27 0.00 96 1002.5
20260507131329 54 0 2.0 6.0 0.00 0.27 0.00 96 1002.5
20260507131129 54 293 6.0 8.0 0.00 0.27 0.00 96 1002.5
20260507130729 54 0 2.0 7.0 0.00 0.27 0.00 96 1002.7
20260507130529 54 23 4.0 7.0 0.00 0.27 0.00 96 1002.5
20260507130328 54 331 2.0 9.0 0.00 0.27 0.00 96 1002.4
20260507130128 54 317 2.0 8.0 0.00 0.27 0.00 96 1002.7
20260507125928 54 341 2.0 9.0 0.00 0.27 0.00 96 1002.9
20260507125728 54 340 5.0 13.0 0.00 0.27 0.00 96 1003.0
20260507125528 54 338 5.0 10.0 0.00 0.27 0.00 96 1003.0
20260507125129 54 17 8.0 13.0 0.00 0.27 0.00 96 1003.1
20260507124928 54 311 5.0 14.0 0.00 0.27 0.00 96 1003.4
20260507124728 54 321 4.0 14.0 0.00 0.27 0.00 95 1003.4
20260507124328 54 242 4.0 7.0 0.00 0.27 0.00 95 1003.3
20260507123728 54 290 1.0 6.0 0.00 0.27 0.00 95 1003.5
20260507123528 54 319 5.0 8.0 0.00 0.27 0.00 95 1003.2
20260507123129 54 352 3.0 9.0 0.00 0.27 0.00 95 1003.4
20260507122928 55 287 6.0 13.0 0.00 0.27 0.00 95 1003.4
20260507122729 55 311 1.0 8.0 0.00 0.27 0.00 95 1003.2
20260507122528 55 16 2.0 9.0 0.00 0.27 0.00 95 1003.5
20260507122328 55 312 5.0 14.0 0.00 0.27 0.00 95 1003.2
20260507121928 55 303 4.0 9.0 0.00 0.27 0.00 95 1003.4
20260507121528 55 1 3.0 7.0 0.00 0.27 0.00 95 1003.3
20260507121328 55 0 4.0 6.0 0.00 0.27 0.00 95 1003.4
20260507121129 55 16 2.0 9.0 0.00 0.27 0.00 95 1003.4
20260507120928 55 310 4.0 9.0 0.00 0.27 0.00 95 1003.4
20260507120728 55 317 10.0 11.0 0.00 0.27 0.00 95 1003.4
20260507120529 55 333 6.0 8.0 0.00 0.27 0.00 95 1003.3
20260507120329 55 341 3.0 9.0 0.05 0.27 0.00 95 1003.4
20260507115528 55 335 8.0 14.0 0.05 0.27 0.00 95 1003.6
20260507115328 55 26 9.0 14.0 0.00 0.26 0.00 95 1003.6
20260507115129 55 18 3.0 15.0 0.00 0.26 0.00 95 1003.8
20260507114929 55 293 4.0 15.0 0.00 0.26 0.00 95 1003.8
20260507114729 55 341 5.0 9.0 0.00 0.26 0.00 96 1003.7
20260507114328 55 344 4.0 8.0 0.00 0.26 0.00 96 1003.8
20260507114129 55 308 4.0 8.0 0.00 0.26 0.00 96 1003.5
20260507113929 55 7 4.0 9.0 0.00 0.26 0.00 96 1003.6
20260507113728 54 296 2.0 7.0 0.00 0.26 0.00 96 1003.7
20260507113528 54 292 4.0 10.0 0.00 0.26 0.00 96 1003.8
20260507113328 54 292 2.0 4.0 0.00 0.26 0.00 96 1003.6
20260507112928 54 295 4.0 7.0 0.00 0.26 0.00 96 1003.6
20260507112328 54 341 5.0 7.0 0.00 0.26 0.00 95 1003.9
20260507112129 54 288 1.0 4.0 0.00 0.26 0.00 95 1003.8
20260507111928 54 294 4.0 6.0 0.00 0.26 0.00 95 1003.7
20260507111728 55 343 2.0 4.0 0.00 0.26 0.00 95 1003.6
20260507111528 55 51 4.0 6.0 0.00 0.26 0.00 95 1003.6
20260507111328 55 333 5.0 7.0 0.00 0.26 0.00 95 1003.6
20260507111128 55 306 6.0 8.0 0.07 0.26 0.00 95 1003.4
20260507110929 55 29 5.0 9.0 0.07 0.26 0.00 95 1003.5
20260507110728 55 278 4.0 7.0 0.07 0.26 0.00 95 1003.7
20260507110528 54 312 7.0 11.0 0.07 0.26 0.00 95 1003.7
20260507110129 54 351 2.0 6.0 0.00 0.25 0.00 95 1004.0
20260507105929 54 329 5.0 8.0 0.00 0.25 0.00 95 1004.1
20260507105729 54 319 3.0 11.0 0.05 0.25 0.00 95 1004.2
20260507105529 54 318 2.0 9.0 0.05 0.25 0.00 95 1004.2
20260507105329 54 18 5.0 8.0 0.05 0.25 0.00 95 1004.1
20260507105129 54 313 4.0 6.0 0.05 0.25 0.00 95 1003.9
20260507104929 54 321 6.0 8.0 0.05 0.25 0.00 95 1004.0
20260507104729 54 276 4.0 9.0 0.00 0.24 0.00 95 1003.9
20260507104528 54 232 4.0 9.0 0.00 0.24 0.00 94 1003.9
20260507104329 54 304 4.0 6.0 0.00 0.24 0.00 94 1003.9
20260507104128 54 315 4.0 8.0 0.00 0.24 0.00 94 1004.0
20260507103929 54 317 5.0 13.0 0.00 0.24 0.00 94 1004.0
20260507103729 54 358 6.0 10.0 0.00 0.24 0.00 94 1004.0
20260507103529 54 334 3.0 7.0 0.00 0.24 0.00 94 1004.0
20260507103329 54 23 3.0 13.0 0.00 0.24 0.00 94 1003.9
20260507102929 54 25 9.0 13.0 0.07 0.24 0.00 94 1004.0
20260507102729 54 283 4.0 15.0 0.07 0.24 0.00 94 1004.0
20260507102329 54 4 6.0 8.0 0.07 0.24 0.00 95 1003.7
20260507102129 54 343 4.0 11.0 0.07 0.24 0.00 95 1003.6
20260507101929 54 320 7.0 10.0 0.00 0.23 0.00 95 1004.0
20260507101729 54 324 4.0 7.0 0.00 0.23 0.00 95 1003.8
20260507101329 54 66 4.0 14.0 0.00 0.23 0.00 95 1004.0
20260507101129 54 328 2.0 8.0 0.00 0.23 0.00 95 1004.2
20260507100929 54 268 5.0 8.0 0.00 0.23 0.00 95 1004.3
20260507100729 54 310 4.0 8.0 0.00 0.23 0.00 94 1004.3
20260507100529 54 1 2.0 11.0 0.00 0.23 0.00 95 1004.5
20260507100329 54 287 6.0 10.0 0.00 0.23 0.00 94 1004.4
20260507100129 53 315 9.0 13.0 0.00 0.23 0.00 95 1004.6
20260507095929 53 346 4.0 15.0 0.00 0.23 0.00 95 1004.6
20260507095529 53 290 5.0 14.0 0.00 0.23 0.00 95 1004.5
20260507095329 53 305 4.0 14.0 0.00 0.23 0.00 95 1004.4
20260507095129 53 323 5.0 6.0 0.00 0.23 0.00 95 1004.4
20260507094529 52 301 4.0 9.0 0.05 0.23 0.00 95 1004.6
20260507094329 52 311 3.0 6.0 0.12 0.23 0.00 95 1004.5
20260507094129 52 30 3.0 4.0 0.12 0.23 0.00 95 1004.6
20260507093929 52 318 4.0 8.0 0.12 0.22 0.00 95 1004.5
20260507093729 52 286 3.0 7.0 0.19 0.22 0.00 94 1004.6
20260507093529 52 291 4.0 7.0 0.12 0.21 0.00 94 1004.5
20260507093329 52 294 4.0 8.0 0.24 0.21 0.00 94 1004.7
20260507093129 52 11 3.0 7.0 0.35 0.21 0.00 94 1004.8
20260507092929 52 308 7.0 8.0 0.31 0.20 0.00 94 1004.8
20260507092729 52 315 2.0 8.0 0.31 0.19 0.00 94 1005.1
20260507092529 52 301 6.0 9.0 0.31 0.18 0.00 93 1004.9
20260507092329 52 294 4.0 4.0 0.24 0.17 0.00 93 1004.8
20260507092129 52 262 3.0 4.0 0.12 0.15 0.00 93 1004.7
20260507091929 52 292 5.0 9.0 0.12 0.15 0.00 93 1004.9
20260507091729 52 305 1.0 8.0 0.12 0.14 0.00 93 1004.7
20260507091529 52 312 2.0 4.0 0.07 0.13 0.00 93 1004.9
20260507091329 52 306 2.0 7.0 0.07 0.13 0.00 93 1004.8
20260507091129 52 294 2.0 4.0 0.12 0.13 0.00 92 1004.8
20260507090929 52 303 4.0 6.0 0.19 0.13 0.00 92 1004.6
20260507090729 52 329 0.0 2.0 0.17 0.12 0.00 92 1004.6
20260507090528 52 5 1.0 6.0 0.17 0.12 0.00 92 1004.9
20260507090129 52 301 1.0 4.0 0.19 0.11 0.00 92 1005.1
20260507085929 52 325 7.0 10.0 0.12 0.10 0.00 92 1005.2
20260507085729 52 303 5.0 8.0 0.07 0.09 0.00 91 1005.0
20260507085529 52 311 5.0 7.0 0.05 0.08 0.00 91 1004.9
20260507085329 52 359 4.0 7.0 0.05 0.08 0.00 91 1005.2
20260507085129 52 277 3.0 6.0 0.05 0.08 0.00 91 1005.0
20260507084929 52 324 5.0 7.0 0.05 0.08 0.00 91 1005.0
20260507084529 53 309 3.0 8.0 0.07 0.07 0.00 90 1005.1
20260507084330 53 166 1.0 4.0 0.07 0.07 0.00 90 1005.1
20260507084129 53 302 6.0 9.0 0.07 0.07 0.00 89 1005.0
20260507083929 53 332 3.0 4.0 0.07 0.07 0.00 88 1004.9
20260507083729 53 317 6.0 9.0 0.07 0.07 0.00 88 1005.1
20260507083529 53 310 1.0 6.0 0.00 0.06 0.00 87 1005.2
20260507083329 53 4 5.0 9.0 0.00 0.06 0.00 87 1005.3
20260507082929 53 2 3.0 6.0 0.05 0.06 0.00 87 1005.2
20260507082729 53 295 5.0 10.0 0.05 0.06 0.00 87 1005.2
20260507082529 53 308 1.0 10.0 0.05 0.06 0.00 86 1005.1
20260507082329 54 347 1.0 10.0 0.05 0.06 0.00 87 1005.2
20260507082129 54 331 3.0 4.0 0.05 0.06 0.00 87 1005.1
20260507081729 54 331 4.0 6.0 0.07 0.05 0.00 87 1005.3
20260507081529 54 347 4.0 11.0 0.07 0.05 0.00 86 1005.3
20260507081329 54 303 2.0 9.0 0.07 0.05 0.00 86 1005.5
20260507081129 54 346 5.0 7.0 0.07 0.05 0.00 87 1005.2
20260507080929 54 333 5.0 9.0 0.00 0.04 0.00 87 1005.2
20260507080729 54 353 1.0 7.0 0.00 0.04 0.00 87 1005.1
20260507080529 54 327 3.0 9.0 0.00 0.04 0.00 87 1005.2
20260507080329 54 335 2.0 7.0 0.07 0.04 0.00 87 1005.1
20260507080130 55 305 3.0 6.0 0.07 0.04 0.00 86 1005.5
20260507075929 55 13 3.0 8.0 0.07 0.04 0.00 86 1005.2
20260507075729 55 313 3.0 7.0 0.07 0.04 0.00 86 1005.3
20260507075529 55 339 7.0 9.0 0.07 0.04 0.00 86 1005.4
20260507075329 55 303 3.0 8.0 0.05 0.03 0.00 86 1005.3
20260507075129 55 16 1.0 11.0 0.12 0.03 0.00 85 1005.4
20260507074929 55 316 5.0 8.0 0.12 0.03 0.00 85 1005.2
20260507074729 55 306 2.0 8.0 0.12 0.03 0.00 86 1005.3
20260507074529 55 336 4.0 8.0 0.12 0.02 0.00 86 1005.5
20260507074329 55 15 2.0 9.0 0.12 0.02 0.00 85 1005.5
20260507074129 55 347 4.0 10.0 0.05 0.01 0.00 84 1005.5
20260507073729 55 284 3.0 4.0 0.05 0.01 0.00 85 1005.6
20260507073529 55 304 1.0 4.0 0.00 0.00 0.00 84 1005.5
20260507073329 55 312 0.0 3.0 0.00 0.00 0.00 84 1005.6
20260507073129 55 285 1.0 3.0 0.00 0.00 0.00 83 1005.7
20260507072929 55 286 1.0 4.0 0.00 0.00 0.00 83 1005.8
20260507072729 55 315 1.0 3.0 0.00 0.00 0.00 83 1005.8
20260507072529 55 281 1.0 2.0 0.00 0.00 0.00 82 1005.8
20260507072129 55 336 1.0 4.0 0.00 0.00 0.00 81 1005.9
20260507071929 55 20 3.0 6.0 0.00 0.00 0.00 80 1005.9
20260507071729 56 341 2.0 4.0 0.00 0.00 0.00 79 1005.7
20260507071329 56 358 2.0 4.0 0.00 0.00 0.00 78 1006.0
20260507071129 56 296 3.0 4.0 0.00 0.00 0.00 77 1006.0
20260507070929 56 297 1.0 6.0 0.00 0.00 0.00 78 1006.2
20260507070329 56 287 2.0 6.0 0.00 0.00 0.00 76 1006.4
20260507070129 56 298 2.0 9.0 0.00 0.00 0.00 75 1006.4
20260507065929 56 292 5.0 7.0 0.00 0.00 0.00 75 1006.4
20260507065729 56 313 5.0 9.0 0.00 0.00 0.00 75 1006.5
20260507065329 56 314 3.0 8.0 0.00 0.00 0.00 75 1006.4
20260507065129 56 286 2.0 7.0 0.00 0.00 0.00 75 1006.4
20260507064929 56 313 1.0 6.0 0.00 0.00 0.00 76 1006.4
20260507064729 55 295 3.0 6.0 0.00 0.00 0.00 76 1006.0
20260507064529 55 212 4.0 4.0 0.00 0.00 0.00 77 1006.3
20260507064329 55 294 1.0 4.0 0.00 0.00 0.00 78 1006.2
20260507064129 55 274 2.0 3.0 0.00 0.00 0.00 78 1006.3
20260507063929 54 13 2.0 3.0 0.00 0.00 0.00 78 1006.4
20260507063729 54 358 4.0 7.0 0.00 0.00 0.00 79 1006.5
20260507063529 53 287 3.0 6.0 0.00 0.00 0.00 80 1006.7
20260507063329 53 294 3.0 7.0 0.00 0.00 0.00 80 1006.7
20260507063129 53 321 1.0 6.0 0.00 0.00 0.00 80 1006.7
20260507062929 53 293 2.0 3.0 0.00 0.00 0.00 80 1007.0
20260507062730 53 288 1.0 3.0 0.00 0.00 0.00 80 1007.0
20260507062529 53 294 2.0 3.0 0.00 0.00 0.00 80 1007.0
20260507062329 53 311 4.0 7.0 0.00 0.00 0.00 80 1007.0
20260507062129 53 312 2.0 4.0 0.00 0.00 0.00 80 1006.9
20260507061929 53 312 2.0 4.0 0.00 0.00 0.00 81 1007.2
20260507061529 53 14 4.0 6.0 0.00 0.00 0.00 80 1007.4
20260507061128 52 312 2.0 6.0 0.00 0.00 0.00 81 1007.0
20260507060928 52 353 4.0 4.0 0.00 0.00 0.00 81 1007.3
20260507060728 52 319 2.0 6.0 0.00 0.00 0.00 82 1007.0
20260507060528 52 327 0.0 3.0 0.00 0.00 0.00 82 1006.9
20260507060329 52 321 2.0 2.0 0.00 0.00 0.00 82 1007.0
20260507060129 52 248 1.0 4.0 0.00 0.00 0.00 82 1006.7
20260507055929 52 248 0.0 1.0 0.00 0.00 0.00 82 1006.8
20260507055729 52 245 1.0 6.0 0.00 0.00 0.00 82 1006.7
20260507055529 52 224 3.0 3.0 0.00 0.00 0.00 83 1007.1
20260507055329 52 251 2.0 3.0 0.00 0.00 0.00 82 1007.0
20260507055129 52 276 0.0 2.0 0.00 0.00 0.00 82 1007.3
20260507054929 52 252 2.0 2.0 0.00 0.00 0.00 83 1007.8
20260507054729 52 294 0.0 1.0 0.00 0.00 0.00 83 1008.1
20260507054529 52 293 0.0 1.0 0.00 0.00 0.00 84 1008.0
20260507054329 52 293 0.0 0.0 0.00 0.00 0.00 83 1008.0
20260507054129 52 286 1.0 1.0 0.00 0.00 0.00 83 1008.3
20260507053930 53 284 0.0 1.0 0.00 0.00 0.00 82 1007.7
20260507053729 53 310 0.0 2.0 0.00 0.00 0.00 81 1008.2
20260507053529 53 288 0.0 2.0 0.00 0.00 0.00 81 1008.0
20260507053129 53 269 0.0 1.0 0.00 0.00 0.00 81 1008.3
20260507052930 53 221 1.0 2.0 0.00 0.00 0.00 81 1008.4
20260507052729 53 291 0.0 1.0 0.00 0.00 0.00 81 1008.9
20260507052329 53 289 2.0 2.0 0.00 0.00 0.00 79 1008.8
20260507052129 53 302 2.0 4.0 0.00 0.00 0.00 79 1009.0
20260507051929 53 296 1.0 1.0 0.00 0.00 0.00 79 1009.0
20260507051729 53 284 1.0 3.0 0.00 0.00 0.00 78 1008.9
20260507051529 53 313 1.0 1.0 0.00 0.00 0.00 79 1008.9
20260507051329 53 317 0.0 1.0 0.00 0.00 0.00 78 1009.0
20260507051129 53 317 0.0 1.0 0.00 0.00 0.00 78 1008.8
20260507050929 53 333 0.0 0.0 0.00 0.00 0.00 78 1009.3
20260507050729 53 334 0.0 1.0 0.00 0.00 0.00 78 1009.5
20260507050328 53 336 1.0 2.0 0.00 0.00 0.00 78 1009.7
20260507050129 53 337 1.0 3.0 0.00 0.00 0.00 78 1009.6
20260507045928 53 332 4.0 6.0 0.00 0.00 0.00 78 1009.5
20260507045728 53 319 2.0 4.0 0.00 0.00 0.00 78 1009.7
20260507045528 53 337 2.0 3.0 0.00 0.00 0.00 78 1009.5
20260507045128 53 286 1.0 2.0 0.00 0.00 0.00 78 1009.7
20260507044928 53 300 3.0 6.0 0.00 0.00 0.00 78 1009.8
20260507044728 53 302 2.0 4.0 0.00 0.00 0.00 78 1009.9
20260507044328 53 286 2.0 3.0 0.00 0.00 0.00 78 1010.0
20260507044128 53 323 2.0 3.0 0.00 0.00 0.00 78 1010.1
20260507043929 53 318 1.0 6.0 0.00 0.00 0.00 77 1009.8
20260507043728 53 1 3.0 7.0 0.00 0.00 0.00 77 1010.0
20260507043529 53 334 2.0 2.0 0.00 0.00 0.00 77 1009.7
20260507043328 53 1 1.0 3.0 0.00 0.00 0.00 77 1009.8
20260507043128 53 293 1.0 4.0 0.00 0.00 0.00 77 1009.9
20260507042929 53 354 2.0 6.0 0.00 0.00 0.00 77 1009.9
20260507042528 53 347 3.0 6.0 0.00 0.00 0.00 77 1010.1
20260507042328 53 325 4.0 8.0 0.00 0.00 0.00 77 1010.2
20260507041928 54 6 3.0 7.0 0.00 0.00 0.00 77 1010.2
20260507041728 54 359 1.0 7.0 0.00 0.00 0.00 77 1010.1
20260507041528 54 310 3.0 4.0 0.00 0.00 0.00 77 1010.5
20260507041328 54 317 3.0 3.0 0.00 0.00 0.00 77 1010.0
20260507041128 54 344 2.0 8.0 0.00 0.00 0.00 77 1010.3
20260507040928 54 329 6.0 7.0 0.00 0.00 0.00 77 1010.2
20260507040528 54 314 3.0 8.0 0.00 0.00 0.00 76 1010.2
20260507040327 54 334 3.0 4.0 0.00 0.00 0.00 77 1009.9
20260507040127 54 340 2.0 6.0 0.00 0.00 0.00 76 1010.3
20260507035927 54 310 3.0 6.0 0.00 0.00 0.00 76 1010.4
20260507035727 54 28 1.0 2.0 0.00 0.00 0.00 76 1010.3
20260507035527 54 327 1.0 2.0 0.00 0.00 0.00 76 1010.4
20260507035327 54 332 1.0 4.0 0.00 0.00 0.00 76 1010.4
20260507035127 54 281 2.0 3.0 0.00 0.00 0.00 76 1010.5
20260507034928 55 353 3.0 4.0 0.00 0.00 0.00 76 1010.5
20260507034727 55 298 2.0 3.0 0.00 0.00 0.00 76 1010.4
20260507034527 55 309 2.0 3.0 0.00 0.00 0.00 76 1010.7
20260507034127 55 318 2.0 6.0 0.00 0.00 0.00 76 1010.7
20260507033927 55 343 2.0 2.0 0.00 0.00 0.00 76 1010.8
20260507033728 55 348 6.0 7.0 0.00 0.00 0.00 76 1010.9
20260507033327 55 327 6.0 7.0 0.00 0.00 0.00 76 1011.0
20260507033127 55 349 1.0 4.0 0.00 0.00 0.00 76 1011.0
20260507032927 55 12 3.0 6.0 0.00 0.00 0.00 76 1010.9
20260507032728 55 314 1.0 4.0 0.00 0.00 0.00 76 1011.0
20260507032327 55 284 6.0 7.0 0.00 0.00 0.00 76 1010.9
20260507032127 55 343 6.0 10.0 0.00 0.00 0.00 76 1011.1
20260507031927 55 330 2.0 9.0 0.00 0.00 0.00 76 1011.0
20260507031727 55 10 2.0 6.0 0.00 0.00 0.00 76 1011.0
20260507031527 55 323 1.0 4.0 0.00 0.00 0.00 76 1011.0
20260507031327 55 295 4.0 6.0 0.00 0.00 0.00 76 1010.9
20260507031127 55 338 1.0 3.0 0.00 0.00 0.00 76 1010.8
20260507030927 55 296 2.0 6.0 0.00 0.00 0.00 76 1011.0
20260507030727 55 7 2.0 3.0 0.00 0.00 0.00 76 1011.1
20260507030327 55 342 4.0 4.0 0.00 0.00 0.00 76 1010.8
20260507030127 55 297 1.0 6.0 0.00 0.00 0.00 76 1011.1
20260507025927 55 354 2.0 4.0 0.00 0.00 0.00 76 1011.5
20260507025727 56 283 1.0 3.0 0.00 0.00 0.00 75 1011.0
20260507025528 56 290 2.0 2.0 0.00 0.00 0.00 75 1011.3
20260507025127 56 305 4.0 6.0 0.00 0.00 0.00 75 1011.1
20260507024928 56 350 2.0 4.0 0.00 0.00 0.00 75 1011.2
20260507024727 56 304 2.0 7.0 0.00 0.00 0.00 75 1011.6
20260507024527 56 301 3.0 3.0 0.00 0.00 0.00 75 1011.4
20260507024327 56 321 3.0 3.0 0.00 0.00 0.00 75 1011.6
20260507023928 56 20 3.0 4.0 0.00 0.00 0.00 75 1011.8
20260507023728 56 14 5.0 8.0 0.00 0.00 0.00 76 1011.6
20260507023528 56 26 4.0 4.0 0.00 0.00 0.00 76 1011.6
20260507023328 56 351 2.0 4.0 0.00 0.00 0.00 76 1011.7
20260507023128 56 315 1.0 2.0 0.00 0.00 0.00 76 1011.7
20260507022928 56 19 1.0 2.0 0.00 0.00 0.00 75 1011.7
20260507022728 56 354 2.0 3.0 0.00 0.00 0.00 75 1012.0
20260507022528 56 320 2.0 4.0 0.00 0.00 0.00 75 1011.9
20260507022328 56 332 1.0 3.0 0.00 0.00 0.00 75 1012.0
20260507022128 56 348 1.0 6.0 0.00 0.00 0.00 75 1011.9
20260507021728 56 339 5.0 7.0 0.00 0.00 0.00 75 1012.1
20260507021528 55 357 1.0 6.0 0.00 0.00 0.00 75 1012.2
20260507021328 55 346 3.0 7.0 0.00 0.00 0.00 75 1012.4
20260507020928 55 320 2.0 4.0 0.00 0.00 0.00 75 1012.3
20260507020728 55 344 2.0 4.0 0.00 0.00 0.00 75 1012.4
20260507020528 55 309 1.0 2.0 0.00 0.00 0.00 75 1012.4
20260507020327 55 325 3.0 7.0 0.00 0.00 0.00 75 1012.5
20260507020127 55 1 3.0 3.0 0.00 0.00 0.00 75 1012.4
20260507015927 55 50 2.0 7.0 0.00 0.00 0.00 75 1012.5
20260507015727 56 356 2.0 4.0 0.00 0.00 0.00 75 1012.4
20260507015527 56 306 4.0 4.0 0.00 0.00 0.00 75 1012.4
20260507015327 56 8 3.0 7.0 0.00 0.00 0.00 74 1012.4
20260507015127 56 301 3.0 4.0 0.00 0.00 0.00 74 1012.4
20260507014927 56 329 6.0 8.0 0.00 0.00 0.00 74 1012.5
20260507014728 56 359 2.0 7.0 0.00 0.00 0.00 74 1012.5
20260507014527 56 341 2.0 7.0 0.00 0.00 0.00 75 1012.4
20260507014327 56 5 3.0 4.0 0.00 0.00 0.00 75 1012.3
20260507014127 56 314 4.0 7.0 0.00 0.00 0.00 75 1012.5
20260507013928 56 312 2.0 3.0 0.00 0.00 0.00 75 1012.4
20260507013528 56 324 4.0 8.0 0.00 0.00 0.00 74 1012.5
20260507013328 56 1 2.0 4.0 0.00 0.00 0.00 74 1012.4
20260507013128 56 13 4.0 8.0 0.00 0.00 0.00 74 1012.6
20260507012728 56 321 5.0 10.0 0.00 0.00 0.00 74 1012.5
20260507012528 56 292 4.0 11.0 0.00 0.00 0.00 74 1012.7
20260507012328 56 315 2.0 6.0 0.00 0.00 0.00 74 1012.6
20260507012128 56 304 2.0 8.0 0.00 0.00 0.00 74 1012.6
20260507011928 56 317 4.0 8.0 0.00 0.00 0.00 74 1012.6
20260507011727 56 317 4.0 8.0 0.00 0.00 0.00 74 1012.9
20260507011528 56 310 4.0 8.0 0.00 0.00 0.00 74 1012.7
20260507011328 56 326 3.0 4.0 0.00 0.00 0.00 73 1012.7
20260507011127 56 336 2.0 4.0 0.00 0.00 0.00 74 1012.6
20260507010927 56 345 3.0 4.0 0.00 0.00 0.00 73 1012.9
20260507010727 56 343 4.0 7.0 0.00 0.00 0.00 73 1013.0
20260507010527 56 353 1.0 8.0 0.00 0.00 0.00 73 1012.7
20260507010328 56 346 3.0 9.0 0.00 0.00 0.00 73 1012.8
20260507005928 56 321 3.0 13.0 0.00 0.00 0.00 73 1012.8
20260507005728 56 27 6.0 14.0 0.00 0.00 0.00 73 1012.8
20260507005528 56 13 1.0 6.0 0.00 0.00 0.00 74 1012.9
20260507005328 56 20 2.0 7.0 0.00 0.00 0.00 74 1012.8
20260507005128 56 291 2.0 8.0 0.00 0.00 0.00 73 1012.8
20260507004928 56 293 7.0 9.0 0.00 0.00 0.00 73 1012.9
20260507004728 56 290 8.0 9.0 0.00 0.00 0.00 73 1012.6
20260507004528 56 325 4.0 8.0 0.00 0.00 0.00 73 1012.8
20260507004328 56 40 2.0 8.0 0.00 0.00 0.00 73 1012.7
20260507004128 56 339 5.0 7.0 0.00 0.00 0.00 73 1012.9
20260507003727 56 356 2.0 11.0 0.00 0.00 0.00 73 1012.9
20260507003528 56 295 3.0 7.0 0.00 0.00 0.00 73 1012.7
20260507003128 56 351 2.0 9.0 0.00 0.00 0.00 73 1012.8
20260507002927 56 318 3.0 8.0 0.00 0.00 0.00 73 1012.9
20260507002728 56 10 2.0 4.0 0.00 0.00 0.00 73 1012.7
20260507002527 56 334 4.0 7.0 0.00 0.00 0.00 73 1012.8
20260507002327 56 303 3.0 6.0 0.00 0.00 0.00 72 1012.7
20260507002127 56 12 3.0 8.0 0.00 0.00 0.00 72 1012.7
20260507001927 56 353 6.0 13.0 0.00 0.00 0.00 72 1012.7
20260507001727 56 9 1.0 13.0 0.00 0.00 0.00 72 1012.7
20260507001527 56 29 4.0 10.0 0.00 0.00 0.00 72 1012.7
20260507001327 56 344 3.0 7.0 0.00 0.00 0.00 72 1012.7
20260507001127 56 323 4.0 8.0 0.00 0.00 0.00 72 1012.7
20260507000927 57 310 6.0 9.0 0.00 0.00 0.00 72 1012.7
20260507000727 57 47 2.0 9.0 0.00 0.00 0.00 72 1012.8
20260507000527 57 349 8.0 15.0 0.00 0.00 0.00 72 1012.5
20260507000328 57 333 3.0 9.0 0.00 0.00 0.00 72 1012.7
20260507000128 57 297 3.0 9.0 0.00 0.00 0.00 72 1012.8
20260506235928 57 310 2.0 4.0 0.00 0.00 0.00 72 1012.6
20260506235728 57 319 3.0 8.0 0.00 0.00 0.00 72 1012.5
20260506235528 57 333 2.0 9.0 0.00 0.00 0.00 72 1012.7
20260506235327 57 328 4.0 7.0 0.00 0.00 0.00 72 1012.6
20260506235128 57 358 1.0 7.0 0.00 0.00 0.00 72 1012.5
20260506234727 57 288 2.0 7.0 0.00 0.00 0.00 72 1012.7
20260506234527 57 320 3.0 6.0 0.00 0.00 0.00 72 1012.6
20260506234327 57 327 4.0 10.0 0.00 0.00 0.00 72 1012.7
20260506234128 57 321 6.0 8.0 0.00 0.00 0.00 71 1012.4
20260506233928 57 310 3.0 6.0 0.00 0.00 0.00 72 1012.5
20260506233728 57 324 2.0 7.0 0.00 0.00 0.00 72 1012.3
20260506233528 57 25 4.0 8.0 0.00 0.00 0.00 71 1012.7
20260506233328 57 335 3.0 8.0 0.00 0.00 0.00 71 1012.4
20260506232928 57 299 6.0 10.0 0.00 0.00 0.00 71 1012.5
20260506232728 58 13 2.0 7.0 0.00 0.00 0.00 72 1012.5
20260506232528 58 322 2.0 8.0 0.00 0.00 0.00 71 1012.5
20260506231728 58 339 1.0 3.0 0.00 0.00 0.00 71 1012.7
20260506231528 58 359 4.0 9.0 0.00 0.00 0.00 71 1012.9
20260506231328 58 305 2.0 4.0 0.00 0.00 0.00 71 1012.7
20260506231128 58 18 2.0 6.0 0.00 0.00 0.00 71 1012.6
20260506230928 58 334 4.0 6.0 0.00 0.00 0.00 71 1013.0
20260506230728 58 309 4.0 6.0 0.00 0.00 0.00 71 1012.9
20260506230528 58 319 2.0 10.0 0.00 0.00 0.00 71 1012.9
20260506230328 58 326 1.0 7.0 0.00 0.00 0.00 71 1012.7
20260506230128 58 342 5.0 6.0 0.00 0.00 0.00 70 1012.9
20260506225928 58 326 3.0 7.0 0.00 0.00 0.00 71 1012.9
20260506225728 59 31 3.0 10.0 0.00 0.00 0.00 70 1012.8
20260506225528 59 312 3.0 9.0 0.00 0.00 0.00 70 1012.7
20260506225128 59 335 9.0 13.0 0.00 0.00 0.00 70 1012.7
20260506224928 59 5 5.0 7.0 0.00 0.00 0.00 70 1012.7
20260506224728 59 319 4.0 10.0 0.00 0.00 0.00 70 1012.7
20260506224528 59 335 3.0 9.0 0.00 0.00 0.00 70 1012.6
20260506224328 59 296 6.0 11.0 0.00 0.00 0.00 70 1012.7
20260506224128 59 308 6.0 11.0 0.00 0.00 0.00 70 1012.8
20260506223928 59 6 6.0 10.0 0.00 0.00 0.00 70 1012.9
20260506223728 59 322 4.0 11.0 0.00 0.00 0.00 70 1012.8
20260506223528 59 36 5.0 10.0 0.00 0.00 0.00 70 1012.8
20260506223328 59 325 4.0 13.0 0.00 0.00 0.00 70 1012.8
20260506223128 60 302 4.0 11.0 0.00 0.00 0.00 70 1012.9
20260506222928 60 318 6.0 8.0 0.00 0.00 0.00 70 1013.0
20260506222728 60 335 5.0 8.0 0.00 0.00 0.00 69 1013.0
20260506222128 60 315 10.0 15.0 0.00 0.00 0.00 69 1012.9
20260506221928 60 11 8.0 13.0 0.00 0.00 0.00 69 1013.0
20260506221728 60 302 4.0 7.0 0.00 0.00 0.00 70 1012.9
20260506221528 60 33 4.0 7.0 0.00 0.00 0.00 70 1013.0
20260506221328 61 339 5.0 9.0 0.00 0.00 0.00 69 1012.8
20260506220929 61 27 3.0 8.0 0.00 0.00 0.00 69 1012.8
20260506220727 61 336 2.0 8.0 0.00 0.00 0.00 70 1012.8
20260506220528 61 354 2.0 10.0 0.00 0.00 0.00 69 1012.9
20260506220128 61 311 4.0 10.0 0.00 0.00 0.00 70 1012.7
20260506215928 61 307 6.0 14.0 0.00 0.00 0.00 69 1012.8
20260506215728 61 338 9.0 13.0 0.00 0.00 0.00 69 1012.6
20260506215328 61 319 3.0 14.0 0.00 0.00 0.00 69 1012.6
20260506215128 61 359 5.0 13.0 0.00 0.00 0.00 69 1012.6
20260506214928 61 286 11.0 13.0 0.00 0.00 0.00 69 1012.6
20260506214728 61 353 3.0 11.0 0.00 0.00 0.00 69 1012.5
20260506214528 61 321 3.0 7.0 0.00 0.00 0.00 69 1012.7
20260506214328 61 332 6.0 9.0 0.00 0.00 0.00 69 1012.4
20260506214128 62 349 3.0 16.0 0.00 0.00 0.00 69 1012.5
20260506213927 62 351 6.0 13.0 0.00 0.00 0.00 69 1012.4
20260506213527 62 4 5.0 9.0 0.00 0.00 0.00 69 1012.5
20260506213128 62 243 6.0 8.0 0.00 0.00 0.00 69 1012.6
20260506212928 62 322 7.0 11.0 0.00 0.00 0.00 70 1012.4
20260506212728 62 323 7.0 13.0 0.00 0.00 0.00 69 1012.5
20260506212528 62 295 5.0 15.0 0.00 0.00 0.00 70 1012.5
20260506212328 62 0 6.0 16.0 0.00 0.00 0.00 70 1012.6
20260506212128 62 326 8.0 16.0 0.00 0.00 0.00 70 1012.5
20260506211927 62 308 10.0 14.0 0.00 0.00 0.00 70 1012.5
20260506211528 62 23 6.0 21.0 0.00 0.00 0.00 69 1012.6
20260506211328 62 27 9.0 13.0 0.00 0.00 0.00 69 1012.6
20260506211127 62 37 7.0 11.0 0.00 0.00 0.00 69 1012.6
20260506210727 63 332 7.0 18.0 0.00 0.00 0.00 69 1012.3
20260506210527 63 342 9.0 16.0 0.00 0.00 0.00 68 1012.4
20260506210328 63 307 4.0 9.0 0.00 0.00 0.00 69 1012.4
20260506210128 63 303 7.0 10.0 0.00 0.00 0.00 69 1012.4
20260506205928 63 316 11.0 15.0 0.00 0.00 0.00 69 1012.3
20260506205728 63 310 4.0 13.0 0.00 0.00 0.00 69 1012.3
20260506205528 63 353 11.0 16.0 0.00 0.00 0.00 69 1012.1
20260506205328 63 338 6.0 17.0 0.00 0.00 0.00 69 1012.0
20260506205128 63 295 5.0 17.0 0.00 0.00 0.00 69 1012.2
20260506204927 63 17 7.0 19.0 0.00 0.00 0.00 69 1012.2
20260506204728 63 352 7.0 18.0 0.00 0.00 0.00 69 1012.3
20260506204528 63 0 4.0 16.0 0.00 0.00 0.00 69 1012.4
20260506204328 63 320 11.0 14.0 0.00 0.00 0.00 69 1012.4
20260506204128 63 307 14.0 18.0 0.00 0.00 0.00 69 1012.6
20260506203928 63 333 14.0 17.0 0.00 0.00 0.00 69 1012.5
20260506203727 63 331 12.0 19.0 0.00 0.00 0.00 69 1012.5
20260506203527 63 307 10.0 18.0 0.00 0.00 0.00 68 1012.7
20260506203328 63 61 6.0 14.0 0.00 0.00 0.00 68 1012.5
20260506203128 63 347 12.0 19.0 0.00 0.00 0.00 68 1012.6
20260506202927 63 9 6.0 17.0 0.00 0.00 0.00 68 1012.5
20260506202527 64 9 13.0 16.0 0.00 0.00 0.00 67 1012.6
20260506202327 64 26 9.0 14.0 0.00 0.00 0.00 67 1012.5
20260506202128 64 334 7.0 11.0 0.00 0.00 0.00 67 1012.5
20260506201727 64 36 7.0 13.0 0.00 0.00 0.00 66 1012.7
20260506201527 64 335 5.0 11.0 0.00 0.00 0.00 66 1012.6
20260506201327 64 301 4.0 13.0 0.00 0.00 0.00 67 1012.7
20260506201127 64 2 5.0 10.0 0.00 0.00 0.00 67 1012.6
20260506200727 64 338 15.0 19.0 0.00 0.00 0.00 66 1012.7
20260506200527 64 328 9.0 17.0 0.00 0.00 0.00 66 1012.6
20260506195928 64 342 2.0 17.0 0.00 0.00 0.00 66 1012.6
20260506195528 65 7 5.0 16.0 0.00 0.00 0.00 66 1012.8
20260506194928 65 291 7.0 18.0 0.00 0.00 0.00 64 1012.7
20260506194728 65 16 9.0 17.0 0.00 0.00 0.00 64 1012.7
20260506194527 65 18 12.0 15.0 0.00 0.00 0.00 64 1012.8
20260506194327 65 330 5.0 16.0 0.00 0.00 0.00 64 1012.7
20260506194128 65 311 7.0 14.0 0.00 0.00 0.00 64 1012.7
20260506193728 65 5 6.0 11.0 0.00 0.00 0.00 64 1012.6
20260506193327 65 32 4.0 11.0 0.00 0.00 0.00 65 1012.8
20260506193127 66 11 6.0 18.0 0.00 0.00 0.00 64 1012.9
20260506192927 66 316 8.0 11.0 0.00 0.00 0.00 63 1012.8
20260506192727 66 25 10.0 14.0 0.00 0.00 0.00 63 1012.8
20260506192527 66 348 3.0 7.0 0.00 0.00 0.00 63 1012.9
20260506192327 66 322 5.0 14.0 0.00 0.00 0.00 64 1012.8
20260506192127 66 260 7.0 16.0 0.00 0.00 0.00 63 1012.9
20260506191927 66 310 10.0 15.0 0.00 0.00 0.00 64 1012.6
20260506191727 66 302 8.0 13.0 0.00 0.00 0.00 63 1013.1
20260506191527 66 340 7.0 13.0 0.00 0.00 0.00 64 1013.1
20260506191327 66 15 4.0 19.0 0.00 0.00 0.00 64 1012.9
20260506191128 66 244 6.0 16.0 0.00 0.00 0.00 64 1013.0
20260506190927 66 315 3.0 17.0 0.00 0.00 0.00 64 1013.0
20260506190727 66 48 8.0 11.0 0.00 0.00 0.00 63 1013.0
20260506190527 66 21 6.0 14.0 0.00 0.00 0.00 64 1013.2
20260506190328 66 16 4.0 13.0 0.00 0.00 0.00 64 1013.3
20260506185928 66 301 9.0 13.0 0.00 0.00 0.00 64 1013.3
20260506185728 66 336 9.0 15.0 0.00 0.00 0.00 64 1013.1
20260506185528 66 357 9.0 15.0 0.00 0.00 0.00 65 1013.1